Big Rapids, MI

9:46 PM EDT on August 19, 2019 (GMT -0400)
Roben-Hood

Weather History for KRQB - May, 2019

Change the Weather History Date:

Monday, May 6, 2019

  Actual Average Record
Temperature  
Mean Temperature 52 °F -  
Max Temperature 56 °F 65 °F 84 °F (2000)
Min Temperature 47 °F 38 °F 25 °F (1989)
Degree Days  
Heating Degree Days 14    
Growing Degree Days 2 (Base 50)    
Moisture  
Dew Point 46 °F    
Average Humidity 81    
Maximum Humidity 91    
Minimum Humidity 63    
Precipitation  
Precipitation 0.14 in - - ()
Sea Level Pressure  
Sea Level Pressure 29.98 in    
Wind  
Wind Speed 2 mph (NE)    
Max Wind Speed 8 mph    
Max Gust Speed -    
Visibility 10 miles    
Events Rain    
Averages and records for this station are not official NWS values.
T = Trace of Precipitation, MM = Missing Value Source: NWS Daily Summary

Daily Weather History Graph

Daily Weather History Graph

Search for Another Location

Airport or City:

Astronomy

May. 06, 2019 Rise Set
Actual Time 6:27 AM EDT 8:50 PM EDT
Civil Twilight 5:55 AM EDT 9:22 PM EDT
Nautical Twilight 5:15 AM EDT 10:02 PM EDT
Astronomical Twilight 4:31 AM EDT 10:47 PM EDT
Moon 7:49 AM EDT (5/6) 10:48 PM EDT (5/6)
Length of Visible Light 15h 26m
Length of Day
14h 22m
Waxing Crescent, 3% of the Moon is Illuminated
May 6
Waxing Crescent
May 11
First Quarter
May 18
Full
May 26
Last Quarter
Jun 3
New

Hourly Weather History & Observations

Time (EDT) Temp. Dew Point Humidity Pressure Visibility Wind Dir Wind Speed Gust Speed Precip Events Conditions
12:15 AM 53.2 °F 43.7 °F 70% 29.85 in 10.0 mi Calm Calm - N/A   Clear
12:16 AM 53.2 °F 43.7 °F 70% 29.85 in 10.0 mi Calm Calm - N/A   Clear
12:35 AM 52.7 °F 43.7 °F 71% 29.86 in 10.0 mi Calm Calm - N/A   Scattered Clouds
12:55 AM 50.2 °F 43.0 °F 76% 29.86 in 10.0 mi Calm Calm - N/A   Scattered Clouds
12:56 AM 49.8 °F 43.2 °F 78% 29.86 in 10.0 mi Calm Calm - N/A   Scattered Clouds
1:15 AM 51.1 °F 43.5 °F 75% 29.87 in 10.0 mi South 3.5 mph - N/A   Clear
1:16 AM 50.9 °F 43.5 °F 76% 29.87 in 10.0 mi Calm Calm - N/A   Clear
1:35 AM 51.1 °F 44.4 °F 78% 29.87 in 10.0 mi Calm Calm - N/A   Scattered Clouds
1:55 AM 56.1 °F 43.5 °F 63% 29.87 in 10.0 mi WSW 3.5 mph - N/A   Mostly Cloudy
1:56 AM 56.1 °F 43.7 °F 63% 29.86 in 10.0 mi WSW 3.5 mph - N/A   Mostly Cloudy
2:15 AM 55.2 °F 43.7 °F 65% 29.87 in 10.0 mi Calm Calm - N/A   Scattered Clouds
2:35 AM 52.7 °F 44.2 °F 73% 29.87 in 10.0 mi South 3.5 mph - N/A   Mostly Cloudy
2:55 AM 52.0 °F 44.6 °F 76% 29.87 in 10.0 mi Calm Calm - N/A   Mostly Cloudy
2:56 AM 52.0 °F 44.6 °F 76% 29.87 in 10.0 mi Calm Calm - N/A   Mostly Cloudy
3:15 AM 52.2 °F 45.5 °F 78% 29.87 in 10.0 mi SW 3.5 mph - N/A   Mostly Cloudy
3:35 AM 54.3 °F 45.3 °F 72% 29.87 in 10.0 mi Calm Calm - N/A   Overcast
3:55 AM 51.4 °F 45.5 °F 80% 29.87 in 10.0 mi Calm Calm - N/A   Scattered Clouds
3:56 AM 51.4 °F 45.5 °F 80% 29.87 in 10.0 mi Calm Calm - N/A   Scattered Clouds
4:15 AM 50.4 °F 45.3 °F 83% 29.87 in 10.0 mi East 5.8 mph - N/A   Clear
4:35 AM 49.5 °F 45.1 °F 85% 29.88 in 10.0 mi SSW 4.6 mph - N/A   Scattered Clouds
4:55 AM 49.3 °F 44.2 °F 83% 29.88 in 10.0 mi Calm Calm - N/A   Scattered Clouds
4:56 AM 49.1 °F 44.4 °F 84% 29.88 in 10.0 mi Calm Calm - N/A   Scattered Clouds
5:15 AM 49.3 °F 45.0 °F 85% 29.88 in 10.0 mi Calm Calm - N/A   Clear
5:16 AM 49.1 °F 44.6 °F 84% 29.88 in 10.0 mi Calm Calm - N/A   Clear
5:35 AM 47.8 °F 43.9 °F 86% 29.89 in 10.0 mi SSW 8.1 mph - N/A   Clear
5:36 AM 47.8 °F 43.9 °F 86% 29.89 in 10.0 mi SSW 8.1 mph - N/A   Clear
5:55 AM 47.7 °F 43.7 °F 86% 29.89 in 10.0 mi SSW 3.5 mph - N/A   Clear
6:15 AM 48.2 °F 44.6 °F 87% 29.90 in 10.0 mi Calm Calm - N/A   Clear
6:35 AM 47.7 °F 44.2 °F 88% 29.92 in 10.0 mi Calm Calm - N/A   Mostly Cloudy
6:36 AM 47.3 °F 44.1 °F 88% 29.92 in 10.0 mi Calm Calm - N/A   Mostly Cloudy
6:55 AM 47.8 °F 45.0 °F 90% 29.92 in 10.0 mi Calm Calm - N/A   Overcast
7:15 AM 48.9 °F 45.7 °F 89% 29.93 in 10.0 mi Calm Calm - N/A   Overcast
7:35 AM 50.2 °F 46.9 °F 89% 29.94 in 10.0 mi Calm Calm - N/A   Overcast
7:36 AM 50.2 °F 46.9 °F 89% 29.94 in 10.0 mi Calm Calm - N/A   Overcast
7:55 AM 50.4 °F 47.3 °F 89% 29.94 in 10.0 mi SSE 4.6 mph - N/A   Mostly Cloudy
8:15 AM 51.4 °F 47.7 °F 87% 29.94 in 10.0 mi South 6.9 mph - N/A   Overcast
8:35 AM 52.7 °F 48.0 °F 84% 29.95 in 10.0 mi South 5.8 mph - N/A   Overcast
8:36 AM 52.9 °F 48.0 °F 84% 29.95 in 10.0 mi South 5.8 mph - N/A   Overcast
8:55 AM 54.3 °F 48.7 °F 81% 29.95 in 10.0 mi SSW 6.9 mph - N/A   Overcast
8:56 AM 54.3 °F 48.7 °F 81% 29.95 in 10.0 mi South 5.8 mph - N/A   Overcast
9:15 AM 54.0 °F 48.6 °F 82% 29.95 in 10.0 mi South 8.1 mph - N/A   Overcast
9:36 AM 54.5 °F 49.1 °F 82% 29.95 in 10.0 mi ESE 8.1 mph - N/A   Overcast
9:55 AM 55.2 °F 49.6 °F 81% 29.95 in 10.0 mi ESE 5.8 mph - N/A   Overcast
9:56 AM 55.2 °F 49.5 °F 81% 29.96 in 10.0 mi ESE 5.8 mph - N/A   Overcast
10:15 AM 55.8 °F 50.0 °F 81% 29.96 in 10.0 mi ESE 4.6 mph - N/A   Overcast
10:35 AM 56.3 °F 50.0 °F 79% 29.96 in 10.0 mi Calm Calm - N/A   Overcast
10:56 AM 56.3 °F 50.0 °F 79% 29.97 in 10.0 mi North 3.5 mph - N/A Rain Rain
11:15 AM 55.4 °F 50.5 °F 84% 29.98 in 10.0 mi North 3.5 mph - N/A Rain Light Rain
11:16 AM 55.4 °F 50.7 °F 84% 29.98 in 10.0 mi North 3.5 mph - N/A Rain Light Rain
11:35 AM 55.0 °F 51.3 °F 87% 29.99 in 10.0 mi Calm Calm - N/A Rain Light Rain
11:55 AM 54.0 °F 50.7 °F 89% 29.99 in 4.0 mi Calm Calm - 0.03 in Rain Light Rain
12:15 PM 53.8 °F 50.9 °F 90% 30.00 in 1.2 mi North 5.8 mph - 0.03 in   Overcast
12:16 PM 53.8 °F 50.9 °F 90% 30.00 in 1.2 mi North 5.8 mph - 0.03 in   Overcast
12:35 PM 51.8 °F 48.9 °F 90% 30.01 in 7.0 mi NNW 6.9 mph - 0.05 in Rain Light Rain
12:55 PM 51.1 °F 48.4 °F 90% 30.02 in 3.0 mi North 5.8 mph - 0.08 in   Overcast
12:56 PM 51.1 °F 48.4 °F 90% 30.02 in 3.0 mi North 5.8 mph - 0.08 in   Overcast
1:15 PM 50.5 °F 48.0 °F 91% 30.02 in 5.0 mi North 3.5 mph - 0.02 in Rain Light Rain
1:16 PM 50.5 °F 48.0 °F 91% 30.02 in 5.0 mi North 4.6 mph - 0.02 in Rain Light Rain
1:55 PM 50.0 °F 47.3 °F 90% 30.02 in 10.0 mi NE 5.8 mph - 0.03 in Rain Light Rain
1:56 PM 50.2 °F 47.3 °F 90% 30.02 in 10.0 mi NNE 5.8 mph - 0.03 in Rain Light Rain
2:15 PM 50.7 °F 46.9 °F 87% 30.03 in 10.0 mi ENE 5.8 mph - N/A   Overcast
2:16 PM 50.7 °F 46.9 °F 87% 30.03 in 10.0 mi ENE 5.8 mph - N/A   Overcast
2:35 PM 50.9 °F 46.9 °F 86% 30.02 in 10.0 mi ENE 6.9 mph - N/A   Overcast
2:36 PM 50.9 °F 46.9 °F 86% 30.02 in 10.0 mi ENE 4.6 mph - N/A   Overcast
2:55 PM 51.8 °F 47.1 °F 84% 30.03 in 10.0 mi NE 4.6 mph - N/A   Overcast
3:15 PM 51.8 °F 47.1 °F 84% 30.03 in 10.0 mi NE 5.8 mph - N/A   Overcast
3:16 PM 51.8 °F 47.1 °F 84% 30.03 in 10.0 mi NE 5.8 mph - N/A   Overcast
3:35 PM 51.3 °F 46.6 °F 84% 30.03 in 10.0 mi NE 4.6 mph - N/A   Overcast
3:36 PM 51.3 °F 46.4 °F 83% 30.03 in 10.0 mi ENE 4.6 mph - N/A   Overcast
3:55 PM 51.8 °F 46.9 °F 83% 30.04 in 10.0 mi NE 3.5 mph - N/A   Overcast
4:15 PM 51.8 °F 46.6 °F 82% 30.03 in 10.0 mi East 3.5 mph - N/A   Overcast
4:35 PM 51.8 °F 46.4 °F 82% 30.04 in 10.0 mi NNE 5.8 mph - N/A   Overcast
4:55 PM 51.8 °F 46.4 °F 82% 30.04 in 10.0 mi North 3.5 mph - N/A   Overcast
4:56 PM 51.8 °F 46.4 °F 82% 30.04 in 10.0 mi North 3.5 mph - N/A   Overcast
5:15 PM 52.2 °F 46.4 °F 81% 30.04 in 10.0 mi North 3.5 mph - N/A   Overcast
5:16 PM 52.2 °F 46.4 °F 81% 30.04 in 10.0 mi North 4.6 mph - N/A   Overcast
5:35 PM 52.3 °F 45.9 °F 79% 30.04 in 10.0 mi NNE 4.6 mph - N/A   Overcast
5:55 PM 52.3 °F 44.8 °F 75% 30.04 in 10.0 mi Calm Calm - N/A   Overcast
6:15 PM 52.3 °F 44.8 °F 75% 30.04 in 10.0 mi Calm Calm - N/A   Overcast
6:16 PM 52.5 °F 44.8 °F 75% 30.04 in 10.0 mi Calm Calm - N/A   Overcast
6:35 PM 52.7 °F 45.0 °F 75% 30.04 in 10.0 mi ENE 3.5 mph - N/A   Overcast
6:36 PM 52.7 °F 45.0 °F 75% 30.04 in 10.0 mi ENE 3.5 mph - N/A   Overcast
6:55 PM 52.9 °F 44.2 °F 72% 30.04 in 10.0 mi Calm Calm - N/A   Overcast
7:15 PM 53.2 °F 44.6 °F 72% 30.04 in 10.0 mi Calm Calm - N/A   Overcast
7:35 PM 53.6 °F 44.6 °F 72% 30.04 in 10.0 mi SE 3.5 mph - N/A   Overcast
7:55 PM 53.6 °F 44.6 °F 72% 30.05 in 10.0 mi East 5.8 mph - N/A   Overcast
7:56 PM 53.4 °F 44.6 °F 72% 30.04 in 10.0 mi East 3.5 mph - N/A   Overcast
8:15 PM 52.7 °F 44.8 °F 74% 30.04 in 10.0 mi East 4.6 mph - N/A   Scattered Clouds
8:35 PM 52.0 °F 44.6 °F 76% 30.05 in 10.0 mi East 5.8 mph - N/A   Mostly Cloudy
8:55 PM 51.8 °F 45.0 °F 77% 30.07 in 10.0 mi Calm Calm - N/A   Overcast
8:56 PM 51.8 °F 45.0 °F 77% 30.07 in 10.0 mi Calm Calm - N/A   Overcast
9:15 PM 51.3 °F 45.1 °F 80% 30.08 in 10.0 mi ESE 3.5 mph - N/A   Overcast
9:35 PM 49.1 °F 44.8 °F 85% 30.10 in 10.0 mi North 4.6 mph - N/A   Overcast
9:55 PM 50.5 °F 45.3 °F 82% 30.12 in 10.0 mi North 3.5 mph - N/A   Overcast
9:56 PM 50.5 °F 45.1 °F 82% 30.12 in 10.0 mi North 3.5 mph - N/A   Overcast
10:15 PM 50.5 °F 43.9 °F 78% 30.12 in 10.0 mi NNE 3.5 mph - N/A   Overcast
10:16 PM 50.5 °F 43.9 °F 78% 30.12 in 10.0 mi NNE 3.5 mph - N/A   Overcast
10:35 PM 50.0 °F 43.7 °F 79% 30.12 in 10.0 mi NNE 3.5 mph - N/A   Overcast
10:36 PM 50.0 °F 43.7 °F 79% 30.12 in 10.0 mi North 3.5 mph - N/A   Overcast
10:55 PM 49.5 °F 43.7 °F 81% 30.12 in 10.0 mi NNE 3.5 mph - N/A   Overcast
11:15 PM 49.3 °F 43.0 °F 79% 30.12 in 10.0 mi NNE 4.6 mph - N/A   Scattered Clouds
11:16 PM 49.3 °F 43.0 °F 79% 30.12 in 10.0 mi NNE 4.6 mph - N/A   Scattered Clouds
11:35 PM 48.6 °F 42.1 °F 78% 30.12 in 10.0 mi NE 3.5 mph - N/A   Clear
11:36 PM 48.6 °F 42.1 °F 78% 30.12 in 10.0 mi NNE 3.5 mph - N/A   Clear
11:55 PM 48.2 °F 41.4 °F 77% 30.12 in 10.0 mi NNE 4.6 mph - N/A   Clear